Regional Weather Roundup
Issued by NWS

Home | Current Version | Previous Version | Graphics & Text | Print | Product List | Glossary Off
Versions: 1 2 3 4 5 6 7 8 9 10 11 12 13 14 15 16 17 18 19 20 21 22 23 24 25 26 27 28 29 30 31 32 33 34 35 36 37 38 39 40 41 42 43 44 45 46 47 48 49 50

000
ASUS43 KTOP 300708
RWRKS

WEATHER ROUNDUP FOR KANSAS
NATIONAL WEATHER SERVICE GOODLAND KS
200 AM CDT SAT JUL 30 2016

NOTE:  "FAIR" INDICATES FEW OR NO CLOUDS BELOW 12,000 FEET WITH NO
SIGNIFICANT WEATHER AND/OR OBSTRUCTIONS TO VISIBILITY.

KSZ001>006-013>018-027>032-041>047-300800-
NORTHWEST KANSAS

CITY           SKY/WX    TMP DP  RH WIND       PRES   REMARKS
GOODLAND       CLOUDY    67  61  81 S10       30.06F
HAYS           CLOUDY    70  61  73 E6        30.03F
HILL CITY      CLOUDY    69  66  90 SE7       30.02F
RUSSELL        CLOUDY    70  66  87 SE8       30.02S
$$

KSZ061>065-074>080-084>089-300800-
SOUTHWEST KANSAS

CITY           SKY/WX    TMP DP  RH WIND       PRES   REMARKS
DODGE CITY     PTCLDY    71  66  84 S9        30.05F
ELKHART          N/A     67  61  81 W2          N/A
GARDEN CITY    CLOUDY    70  66  87 E8        30.06F
GREAT BEND     CLOUDY    72  63  73 SE6       30.02F
LIBERAL        PTCLDY    73  63  68 E13       30.07R
PRATT          MOCLDY    71  65  82 S8        30.03F
$$

KSZ066>073-081>083-090>101-300800-
SOUTHEAST KANSAS

CITY           SKY/WX    TMP DP  RH WIND       PRES   REMARKS
CHANUTE        CLEAR     71  69  93 CALM      29.99F
COFFEYVILLE    CLEAR     71  70  96 CALM      29.98F
HUTCHINSON     PTCLDY    72  68  87 E5        30.02F
MEDICINE LODGE   N/A     73  68  84 CALM      30.02S
NEWTON         CLOUDY    72  69  90 E6        30.03S
PARSONS        CLEAR     70  69  97 CALM      30.00F
WICHITA INTL   CLOUDY    73  69  87 S5        30.01F
WICHITA JABRA  CLOUDY    70  69  97 CALM      30.01F
WICHITA MCCONL PTCLDY    73  69  88 S5        30.02S
WINFIELD       PTCLDY    73  69  87 CALM      30.02S
$$

KSZ007>012-019>026-033>040-048>060-102>105-300800-
NORTHEAST KANSAS

CITY           SKY/WX    TMP DP  RH WIND       PRES   REMARKS
CONCORDIA      CLOUDY    66  63  90 SE6       30.02F
EMPORIA        CLEAR     70  67  90 CALM      30.02R
LAWRENCE       PTCLDY    64  62  93 CALM      30.01F
MANHATTAN      CLOUDY    68  65  90 CALM      30.01F
MARYSVILLE     CLOUDY    63  61  94 E3        30.03S
OLATHE IND     CLEAR     68  64  87 N5        30.02F
OLATHE EXE     CLEAR     69  62  78 N6        30.01F
SALINA         CLOUDY    75  67  76 SE6       30.02S
TOPEKA BILLARD CLEAR     68  65  90 CALM      30.01F
TOPEKA FORBES  CLEAR     69  64  84 CALM      30.02S
$$



USA.gov is the U.S. government's official web portal to all federal, state and local government web resources and services.